Terminal Aerodrome Forecast
Issued by NWS Salt Lake City, UT

Home | Current Version | Previous Version | Text Only | Print | Product List | Glossary On
Versions: 1 2 3 4 5 6 7 8 9 10 11 12 13 14 15 16 17 18 19 20 21 22 23 24 25 26 27 28 29
000
FTUS45 KSLC 192055 AAB
TAFSLC
TAF AMD
KSLC 192055Z 1921/2024 32010KT P6SM VCSH SCT080 BKN200
     FM200300 18006KT P6SM SCT060 SCT120
     FM201700 33006KT P6SM FEW070 SCT200=

USA.gov is the U.S. government's official web portal to all federal, state and local government web resources and services.